Weather History for Lyndonville, VT

Change the Weather History Date:

Friday, March 22, 2013

  Actual Average (K1V4) Record (K1V4)
Temperature  
Mean Temperature 22 °F 33 °F  
Max Temperature 33 °F 44 °F 81 °F (2012)
Min Temperature 11 °F 22 °F -9 °F (1939)
Degree Days  
Heating Degree Days 44 32  
Month to date heating degree days 808  
Since 1 July heating degree days 6532  
Cooling Degree Days 0 0  
Month to date cooling degree days 0  
Year to date cooling degree days 0  
Moisture  
Dew Point 14 °F    
Average Humidity 68    
Maximum Humidity 86    
Minimum Humidity 46    
Precipitation  
Precipitation 0.00 in 0.08 in 1.19 in (1942)
Month to date precipitation 1.73  
Year to date precipitation 6.41  
Sea Level Pressure  
Sea Level Pressure 29.63 in    
Wind  
Wind Speed 3 mph (WNW)    
Max Wind Speed 13 mph    
Max Gust Speed 17 mph    
Visibility 9 miles    
Events Snow    
T = Trace of Precipitation, MM = Missing Value Source: NWS Daily Summary

Daily Weather History Graph

Daily Weather History Graph

Search for Another Location

Airport:

Trip Planner

Search our weather history database for the weather conditions in past years. The results will help you decide how hot, cold, wet, or windy it might be!

Date:

Astronomy

Mar. 22, 2013 Rise Set
Actual Time 6:47 AM EDT 7:03 PM EDT
Civil Twilight 6:18 AM EDT 7:32 PM EDT
Nautical Twilight 5:43 AM EDT 8:06 PM EDT
Astronomical Twilight 5:08 AM EDT 8:42 PM EDT
Moon 2:18 PM EDT (3/22) 3:56 AM EDT (3/22)
Length of Visible Light 13h 14m
Length of Day
12h 16m
Waxing Gibbous, 77% of the Moon is Illuminated
Mar 22
Waxing Gibbous
Mar 27
Full
Apr 3
Last Quarter
Apr 10
New
Apr 18
First Quarter

Hourly Weather History & Observations

Time (EDT) Temp. Windchill Dew Point Humidity Pressure Visibility Wind Dir Wind Speed Gust Speed Precip Events Conditions
12:15 AM 19.2 °F - 9.5 °F 66% 29.61 in 10.0 mi Calm Calm - N/A   Clear
12:35 AM 20.3 °F 15.4 °F 9.9 °F 64% 29.61 in 10.0 mi WSW 3.5 mph - N/A   Clear
12:55 AM 17.8 °F 12.5 °F 10.0 °F 72% 29.62 in 10.0 mi East 3.5 mph - N/A   Clear
1:15 AM 17.2 °F 11.9 °F 9.0 °F 70% 29.62 in 10.0 mi ENE 3.5 mph - N/A   Clear
1:35 AM 17.4 °F - 9.5 °F 71% 29.62 in 10.0 mi Calm Calm - N/A   Clear
1:55 AM 18.3 °F - 10.4 °F 71% 29.62 in 10.0 mi Calm Calm - N/A   Scattered Clouds
2:15 AM 19.6 °F - 10.8 °F 69% 29.62 in 10.0 mi Calm Calm - N/A   Mostly Cloudy
2:35 AM 18.5 °F - 10.6 °F 71% 29.62 in 10.0 mi Calm Calm - N/A   Mostly Cloudy
2:55 AM 18.7 °F - 10.6 °F 71% 29.62 in 10.0 mi Calm Calm - N/A   Overcast
3:15 AM 15.8 °F - 9.7 °F 77% 29.62 in 10.0 mi Calm Calm - N/A Snow Light Snow
3:35 AM 16.7 °F - 10.4 °F 76% 29.61 in 10.0 mi Calm Calm - N/A Snow Light Snow
3:55 AM 18.7 °F - 11.5 °F 74% 29.61 in 10.0 mi Calm Calm - N/A Snow Light Snow
4:15 AM 18.9 °F - 11.8 °F 74% 29.61 in 10.0 mi Calm Calm - N/A   Overcast
4:35 AM 18.5 °F - 12.7 °F 78% 29.61 in 10.0 mi Calm Calm - N/A   Mostly Cloudy
4:55 AM 15.6 °F - 10.4 °F 80% 29.61 in 10.0 mi Calm Calm - N/A   Scattered Clouds
5:15 AM 15.6 °F 8.3 °F 11.5 °F 84% 29.61 in 10.0 mi West 4.6 mph - N/A   Clear
5:35 AM 14.9 °F 9.2 °F 11.1 °F 85% 29.61 in 10.0 mi West 3.5 mph - N/A   Clear
5:55 AM 15.8 °F 8.6 °F 12.2 °F 86% 29.61 in 10.0 mi West 4.6 mph - N/A   Clear
6:15 AM 11.5 °F 2.1 °F 7.7 °F 85% 29.61 in 10.0 mi WSW 5.8 mph - N/A   Clear
6:35 AM 12.4 °F 4.6 °F 9.0 °F 86% 29.61 in 10.0 mi SW 4.6 mph - N/A   Clear
6:55 AM 12.7 °F 6.7 °F 9.3 °F 86% 29.62 in 10.0 mi SW 3.5 mph - N/A   Clear
7:15 AM 13.1 °F 7.1 °F 9.3 °F 85% 29.62 in 10.0 mi SW 3.5 mph - N/A   Clear
7:35 AM 14.7 °F - 11.3 °F 86% 29.63 in 10.0 mi Calm Calm - N/A   Scattered Clouds
7:55 AM 13.6 °F - 10.0 °F 86% 29.63 in 10.0 mi Calm Calm - N/A   Mostly Cloudy
8:15 AM 13.1 °F 7.1 °F 9.5 °F 86% 29.63 in 10.0 mi West 3.5 mph - N/A   Mostly Cloudy
8:35 AM 15.1 °F - 11.1 °F 84% 29.63 in 10.0 mi Calm Calm - N/A   Scattered Clouds
8:55 AM 17.2 °F - 11.8 °F 79% 29.63 in 10.0 mi Calm Calm - N/A   Clear
9:15 AM 18.1 °F - 11.7 °F 76% 29.63 in 10.0 mi Calm Calm - N/A   Scattered Clouds
9:35 AM 20.8 °F - 12.0 °F 69% 29.64 in 10.0 mi Calm Calm - N/A   Mostly Cloudy
9:55 AM 24.4 °F 20.1 °F 13.3 °F 63% 29.64 in 10.0 mi East 3.5 mph - N/A   Scattered Clouds
10:15 AM 25.2 °F - 13.6 °F 62% 29.64 in 10.0 mi Calm Calm - N/A   Mostly Cloudy
10:35 AM 28.4 °F - 14.7 °F 57% 29.63 in 10.0 mi Calm Calm - N/A   Mostly Cloudy
10:55 AM 28.0 °F - 14.2 °F 56% 29.63 in 10.0 mi Calm Calm - N/A   Mostly Cloudy
11:15 AM 27.3 °F 19.9 °F 13.8 °F 57% 29.63 in 10.0 mi WNW 6.9 mph - N/A   Overcast
11:35 AM 27.3 °F 23.4 °F 15.3 °F 61% 29.62 in 7.0 mi West 3.5 mph - N/A Snow Light Snow
11:55 AM 28.0 °F 22.8 °F 14.9 °F 58% 29.62 in 10.0 mi West 4.6 mph - N/A   Overcast
12:15 PM 28.2 °F 20.2 °F 13.6 °F 54% 29.62 in 10.0 mi West 8.1 mph - N/A   Overcast
12:35 PM 29.3 °F 19.6 °F 13.8 °F 53% 29.62 in 10.0 mi WNW 11.5 mph - N/A   Overcast
12:55 PM 29.7 °F 20.7 °F 13.6 °F 51% 29.62 in 10.0 mi West 10.4 mph - N/A   Overcast
1:15 PM 29.7 °F 22.0 °F 14.0 °F 52% 29.62 in 10.0 mi West 8.1 mph - N/A   Overcast
1:35 PM 31.6 °F 27.0 °F 12.7 °F 46% 29.61 in 10.0 mi WSW 4.6 mph - N/A   Overcast
1:55 PM 30.2 °F 23.4 °F 12.4 °F 48% 29.61 in 10.0 mi West 6.9 mph - N/A   Mostly Cloudy
2:15 PM 30.9 °F 25.2 °F 13.5 °F 48% 29.60 in 10.0 mi NW 5.8 mph - N/A   Mostly Cloudy
2:35 PM 31.6 °F 22.6 °F 13.1 °F 46% 29.60 in 10.0 mi West 11.5 mph 17.3 mph N/A   Overcast
2:55 PM 32.0 °F 24.8 °F 14.2 °F 48% 29.60 in 10.0 mi WSW 8.1 mph - N/A   Mostly Cloudy
3:15 PM 32.0 °F 24.8 °F 13.1 °F 46% 29.59 in 10.0 mi West 8.1 mph - N/A   Overcast
3:35 PM 30.7 °F 22.6 °F 17.2 °F 57% 29.60 in 10.0 mi NW 9.2 mph 17.3 mph N/A   Overcast
3:55 PM 31.1 °F 22.4 °F 15.4 °F 52% 29.60 in 10.0 mi NW 10.4 mph - N/A   Overcast
4:15 PM 29.3 °F 22.3 °F 20.1 °F 69% 29.61 in 3.0 mi NNW 6.9 mph - N/A Snow Light Snow
4:35 PM 28.4 °F 20.4 °F 21.2 °F 74% 29.61 in 2.0 mi NW 8.1 mph - N/A Snow Light Snow
4:55 PM 29.3 °F 20.8 °F 20.3 °F 69% 29.61 in 10.0 mi North 9.2 mph - N/A   Mostly Cloudy
5:15 PM 29.3 °F 23.2 °F 18.9 °F 65% 29.61 in 10.0 mi NW 5.8 mph - N/A   Overcast
5:35 PM 29.3 °F 21.5 °F 18.3 °F 64% 29.61 in 10.0 mi North 8.1 mph - N/A   Overcast
5:55 PM 29.7 °F 22.8 °F 17.8 °F 61% 29.61 in 10.0 mi NW 6.9 mph - N/A   Overcast
6:15 PM 29.3 °F 24.3 °F 17.4 °F 61% 29.62 in 7.0 mi NW 4.6 mph - N/A Snow Light Snow
6:35 PM 28.9 °F 20.4 °F 18.1 °F 64% 29.63 in 10.0 mi WNW 9.2 mph 17.3 mph N/A   Overcast
6:55 PM 28.4 °F 20.4 °F 19.0 °F 68% 29.64 in 4.0 mi WNW 8.1 mph - N/A Snow Light Snow
7:15 PM 28.4 °F 22.2 °F 18.3 °F 66% 29.64 in 10.0 mi WNW 5.8 mph - N/A Snow Light Snow
7:35 PM 27.5 °F 18.0 °F 18.3 °F 68% 29.65 in 10.0 mi NW 10.4 mph - N/A Snow Light Snow
7:55 PM 27.1 °F 16.4 °F 19.0 °F 72% 29.66 in 7.0 mi WNW 12.7 mph - N/A Snow Light Snow
8:15 PM 26.2 °F 17.1 °F 17.4 °F 69% 29.67 in 5.0 mi West 9.2 mph 17.3 mph N/A Snow Light Snow
8:35 PM 25.7 °F 18.0 °F 16.5 °F 68% 29.68 in 10.0 mi WNW 6.9 mph 16.1 mph N/A Snow Light Snow
8:55 PM 24.8 °F 17.9 °F 15.8 °F 69% 29.68 in 10.0 mi West 5.8 mph - N/A   Mostly Cloudy
9:15 PM 24.8 °F 16.9 °F 14.7 °F 66% 29.67 in 10.0 mi WNW 6.9 mph - N/A Snow Light Snow
9:35 PM 23.9 °F 16.8 °F 14.5 °F 67% 29.67 in 10.0 mi West 5.8 mph - N/A Snow Light Snow
9:55 PM 23.2 °F 16.0 °F 14.7 °F 70% 29.67 in 10.0 mi WNW 5.8 mph - N/A   Scattered Clouds
10:15 PM 23.0 °F 18.4 °F 15.3 °F 72% 29.67 in 10.0 mi WNW 3.5 mph - N/A Snow Light Snow
10:35 PM 22.8 °F 12.9 °F 15.3 °F 73% 29.67 in 7.0 mi WNW 9.2 mph - N/A Snow Light Snow
10:55 PM 23.7 °F 14.0 °F 15.8 °F 72% 29.67 in 10.0 mi West 9.2 mph - N/A Snow Light Snow
11:15 PM 23.9 °F 15.8 °F 16.0 °F 72% 29.67 in 10.0 mi West 6.9 mph - N/A   Overcast
11:35 PM 23.7 °F 14.7 °F 16.2 °F 73% 29.66 in 10.0 mi West 8.1 mph - N/A Snow Light Snow
11:55 PM 23.9 °F 18.0 °F 16.7 °F 74% 29.67 in 4.0 mi NW 4.6 mph - N/A Snow Light Snow